Home   Weather   Carlisle   Past weeks
Flag for United Kingdom

Past Weather in Carlisle, England, United Kingdom — Yesterday and Last 2 Weeks

Now
51 °F

Cool.


Feels Like: N/A
Forecast: 55 / 49 °F
Wind: N/A

Location: Carlisle

Current Time: Mar 21, 2019 at 2:03:13 am

Latest Report: Mar 21, 2019 at 1:00 am


Visibility: 19 mi

Pressure: 30.35 "Hg

Humidity: 94%

Dew Point: 49 °F

Location of CarlisleLocation

Past Weather in Carlisle — Graph

°F

Carlisle Temperature Yesterday

Maximum temperature yesterday: 54 °F (at 9:00 pm)
Minimum temperature yesterday: 49 °F (at 12:00 am)
Average temperature yesterday: 51 °F

High & Low Weather Summary for the Past Weeks

 TemperatureHumidityPressure
High54 °F (Mar 6, 1:00 pm)99% (Mar 16, 9:00 am)30.37 "Hg (Mar 16, 9:00 am)
Low31 °F (Mar 8, 5:00 am)61% (Mar 17, 6:00 pm)28.82 "Hg (Mar 7, 4:00 am)
Average44 °F85%29.61 "Hg
* Reported Mar 6 12:00 am — Mar 21 12:00 am, Carlisle. Weather by CustomWeather, © 2019

Note: Actual official high and low records may vary slightly from our data, if they occured in-between our weather recording intervals... More about our weather records

Advertising

Carlisle Weather History for the Previous 24 Hours

Scroll right to see more
 ConditionsComfort  
Time TempWeatherWind HumidityBarometerVisibility
12:00 am
Thu, Mar 21
50 °FCool.N/A92%30.35 "Hg47 mi
11:00 pm
Wed, Mar 20
51 °FCool.N/A93%30.34 "Hg47 mi
10:00 pm51 °FCool.N/A91%30.35 "Hg2 mi
9:00 pm54 °FCool.N/A82%30.34 "Hg47 mi
8:00 pm52 °FCool.N/A86%30.35 "Hg47 mi
7:00 pm54 °FCool.N/A82%30.34 "Hg19 mi
5:00 pm53 °FCool.N/A85%30.33 "Hg28 mi
4:00 pm53 °FCool.N/A85%30.34 "Hg37 mi
3:00 pm53 °FCool.N/A86%30.34 "Hg28 mi
2:00 pm52 °FCool.N/A88%30.36 "Hg11 mi
1:00 pm52 °FCool.N/A90%30.37 "Hg12 mi
12:00 pm51 °FCool.N/A90%30.37 "Hg13 mi
10:00 am50 °FCool.N/A92%30.37 "Hg11 mi
9:00 am50 °FCool.N/A93%30.37 "Hg6 mi
8:00 am50 °FCool.N/A93%30.35 "Hg11 mi
7:00 am49 °FCool.N/A92%30.34 "Hg9 mi
6:00 am50 °FCool.N/A91%30.33 "Hg12 mi
5:00 am50 °FCool.N/A91%30.33 "Hg19 mi
4:00 am50 °FCool.N/A91%30.32 "Hg17 mi
3:00 am50 °FCool.N/A91%30.31 "Hg19 mi
2:00 am50 °FCool.N/A94%30.31 "Hg9 mi
Weather by CustomWeather, © 2019

See weather overview